This is the latest recevied weather packets stored in our database for station/object KY4LEX. If no packets are shown the sender has not sent any weather packets the latest 10 day(s).
| Time | Temp. | Humidity | Pressure | Rain* | Wind** | Luminosity | Snow |
|---|---|---|---|---|---|---|---|
| 1778116255 | 13.89° C | 65% | 1019.1 hPa | 0 mm | - | 0 W/m² | - |
| 1778115950 | 13.89° C | 64% | 1019.4 hPa | 0 mm | - | 0 W/m² | - |
| 1778115647 | 13.89° C | 65% | 1019.2 hPa | 0 mm | - | 0 W/m² | - |
| 1778115345 | 13.89° C | 62% | 1019.4 hPa | 0 mm | - | 0 W/m² | - |
| 1778115040 | 13.89° C | 64% | 1019.3 hPa | 0 mm | - | 0 W/m² | - |
| 1778114738 | 13.89° C | 64% | 1019 hPa | 0 mm | - | 0 W/m² | - |
| 1778114435 | 13.89° C | 63% | 1019 hPa | 0 mm | - | 0 W/m² | - |
| 1778114131 | 14.44° C | 65% | 1018.9 hPa | 0 mm | - | 1 W/m² | - |
| 1778113825 | 14.44° C | 63% | 1018.9 hPa | 0 mm | - | 1 W/m² | - |
| 1778113523 | 14.44° C | 64% | 1019.1 hPa | 0 mm | - | 1 W/m² | - |
| 1778113219 | 14.44° C | 61% | 1018.9 hPa | 0 mm | - | 1 W/m² | - |
| 1778112915 | 14.44° C | 62% | 1018.9 hPa | 0 mm | - | 1 W/m² | - |
| 1778112613 | 14.44° C | 62% | 1018.6 hPa | 0 mm | - | 2 W/m² | - |
| 1778112309 | 14.44° C | 62% | 1018.8 hPa | 0 mm | - | 3 W/m² | - |
| 1778112004 | 14.44° C | 61% | 1018.4 hPa | 0 mm | - | 2 W/m² | - |
| 1778111702 | 14.44° C | 60% | 1018.5 hPa | 0 mm | - | 4 W/m² | - |
| 1778111397 | 14.44° C | 59% | 1018.9 hPa | 0 mm | - | 4 W/m² | - |
| 1778111095 | 15° C | 59% | 1018.6 hPa | 0 mm | - | 4 W/m² | - |
| 1778110793 | 15° C | 60% | 1018.4 hPa | 0 mm | - | 5 W/m² | - |
| 1778110489 | 15° C | 62% | 1018.4 hPa | 0 mm | - | 6 W/m² | - |
| 1778110185 | 15° C | 62% | 1018.3 hPa | 0 mm | - | 8 W/m² | - |
| 1778109882 | 15° C | 62% | 1018.6 hPa | 0 mm | - | 10 W/m² | - |
| 1778109578 | 15° C | 62% | 1018.5 hPa | 0 mm | - | 10 W/m² | - |
| 1778109275 | 15° C | 62% | 1018.5 hPa | 0 mm | - | 13 W/m² | - |
| 1778108972 | 15° C | 62% | 1018.5 hPa | 0 mm | - | 11 W/m² | - |
* Rain latest hour (hover to see other rain measurements)
** Current wind speed in m/s (hover to see current wind gust speed)